Regional Weather Roundup
Issued by NWS Grand Forks, ND

Home | Current Version | Previous Version | Graphics & Text | Print | Product List | Glossary On
Versions: 1 2 3 4 5 6 7 8 9 10 11 12 13 14 15 16 17 18 19 20 21 22 23 24 25 26 27 28 29 30 31 32 33 34 35 36 37 38 39 40 41 42 43 44 45 46 47 48 49 50
000
ASUS43 KFGF 211910
RWRFGF
PRAIRIE TO PINES  WEATHER ROUNDUP
NATIONAL WEATHER SERVICE EASTERN NORTH DAKOTA/GRAND FORKS ND
100 PM CST TUE NOV 21 2017

 **SATELLITE DATA USED TO AUGMENT SKY COVER AT AUTOMATED STATIONS**
 *****  WEATHER ACROSS EASTERN NORTH DAKOTA  *****

CITY           SKY/WX    TMP DP  RH WIND       PRES   REMARKS
GRAND FORKS    PTSUNNY   20  11  68 NW17G28   30.31R WCI   5
GRAND FRKS AFB FAIR      19   9  65 NW15G23   30.31R WCI   5
GRAND FRKS NWS   N/A     19 N/A N/A N16         N/A  WCI   5
DEVILS LAKE    FLURRIES  16   9  74 W14       30.31S WCI   2
FARGO          PTSUNNY   23  10  57 NW21G28   30.31R WCI   8
WAHPETON ARPT  NOT AVBL
$$

 ***** WEATHER ACROSS CENTRAL AND WESTERN NORTH DAKOTA  *****

CITY           SKY/WX    TMP DP  RH WIND       PRES   REMARKS
BISMARCK       CLOUDY    22   7  52 NW12      30.38F WCI  10
MINOT          FAIR      15   4  61 W14       30.34S WCI   0
JAMESTOWN      FAIR      18   8  65 NW16G25   30.31F WCI   3
MINOT AFB      PTSUNNY   12   3  65 W16       30.33S WCI  -4
GARRISON         N/A     11   3  70 W16       30.35S WCI  -6
WILLISTON      FAIR      13  -1  54 W12       30.40F WCI  -1
DICKINSON      FAIR      18   1  47 W15       30.30F WCI   4
HETTINGER      FAIR      19   0  43 W15G21    30.33F WCI   5
$$

 *****  OTHER AIRPORT OBSERVATIONS IN OUR AREA  *****

CITY           SKY/WX    TMP DP  RH WIND       PRES   REMARKS
WALHALLA       FAIR      21  10  63 NW17G24   30.28S WCI   7
GRAFTON AIRPOR FAIR      19  10  68 W17       30.32S WCI   4
VALLEY CITY AR FLURRIES  18   9  68 NW21      30.32S WCI   1
CANDO          FAIR      19   9  63 W12       30.31F WCI   7
CAVALIER APRT  FAIR      19   9  63 NW18      30.28S WCI   4
GWINNER          N/A     23   7  50 NW18G26   30.31R WCI   9
SHEYENNE NWR     N/A     23   8  51 NW14      29.95S WCI  11
ROLLA          FAIR      16   7  67 NW10      30.26F WCI   3
 ***** THE ABOVE OBSERVATIONS ARE NON NWS ARE NOT QUALITY
       CONTROLLED AND MAY MIS-REPORT RAIN FOR SNOW...
$$

  *****  WEATHER ACROSS NORTHERN MINNESOTA  *****

CITY           SKY/WX    TMP DP  RH WIND       PRES   REMARKS
FLAG ISLAND    CLOUDY    18  10  73 W18G24    30.12R WCI   2
WARROAD        PTSUNNY   18  10  73 W14       30.18R WCI   4
ROSEAU         LGT SNOW  19  12  73 W12G17    30.20R WCI   7
HALLOCK        CLOUDY    19  10  68 NW16G23   30.27R WCI   5
THF RVR FALLS  LGT SNOW  16  10  77 NW23      30.25R WCI  -2
BAUDETTE       LGT SNOW  17  10  74 NW16G30   30.13R WCI   2
WASKISH        CLOUDY    18   9  68 NW14G20   30.16R WCI   4
CROOKSTON      FLURRIES  18  10  73 N23       30.29S WCI   0
STEPHEN NDAWN    N/A     19  10  68 NW15        N/A  WCI   5
GREENBUSH NDAW   N/A     18  10  73 W15         N/A  WCI   3
$$
  *****  WEATHER ACROSS CENTRAL AND WEST MINNESOTA  *****

CITY           SKY/WX    TMP DP  RH WIND       PRES   REMARKS
FOSSTON        LGT SNOW  16   9  73 NW18G32   30.23R WCI  -1
BEMIDJI        FLURRIES  17   9  70 NW17      30.17R WCI   1
PARK RAPIDS    FAIR      21   9  59 NW20G29   30.16R WCI   6
ELBOW LAKE     FAIR      20   9  63 W25G31    30.26R HAZE    WCI   2
WADENA         FAIR      18   9  68 W17G30    30.20R WCI   2
DETROIT LAKES  FLURRIES  19  12  73 NW21G30   30.24R WCI   3
MOORHEAD       PTSUNNY   21   9  58 NW21      30.30R WCI   6
FERGUS FALLS   FAIR      19   9  63 NW22G28   30.30R WCI   3
MORRIS MN      FAIR      23   9  54 NW25G32   30.25R WCI   7
STAPLES        FAIR      21   7  53 NW17      30.16R WCI   7
$$
  *****  WEATHER ELSEWHERE ACROSS MINNESOTA  *****

CITY           SKY/WX    TMP DP  RH WIND       PRES   REMARKS
DULUTH         FAIR      22   9  57 NW14G28   30.00R WCI   9
INTRNTL FALLS  FLURRIES  16   7  67 W15       30.09R WCI   1
ELY            CLOUDY    16   7  67 NW12G22   30.00R WCI   3
CLOQUET        FAIR      23   7  50 NW18G26   30.03R WCI   9
WHEATON        FAIR      23   7  50 NW20G25   30.31R WCI   8
BRAINERD       FAIR      24   6  46 NW12      30.13R WCI  13
HIBBING        CLOUDY    19   9  65 NW23G29   30.05R WCI   2
ALEXANDRIA     FAIR      21   9  59 NW22G29   30.21R WCI   5
SAINT CLOUD    FAIR      25   9  50 NW17G25   30.15R WCI  12
MINNEAPOLIS    FAIR      27  11  51 NW20G28   30.12R WCI  13
$$

  *****  WEATHER ACROSS SOUTH DAKOTA  *****

CITY           SKY/WX    TMP DP  RH WIND       PRES   REMARKS
SIOUX FALLS    FAIR      27  10  49 NW22G28   30.28R WCI  13
BROOKINGS      FAIR      23   9  55 N18G25    30.26R WCI   9
WATERTOWN      FAIR      22   7  52 N16G26    30.27R WCI   8
HURON          FAIR      25   7  46 N20G28    30.35S WCI  11
SISSETON         N/A     24   9  52 NW25G33   30.30R WCI   8
ABERDEEN       FAIR      24   6  46 NW16      30.36R WCI  11
MITCHELL       FAIR      25   8  48 N17G28    30.37R WCI  12
PIERRE         FAIR      23   9  55 NW14      30.37F WCI  11
MOBRIDGE       FAIR      21   5  50 NW15      30.33F WCI   8
RAPID CITY     FAIR      31  20  63 VRB5      30.32F
$$

  *****  SOME WEATHER IN NEARBY STATES *****

CITY           SKY/WX    TMP DP  RH WIND       PRES   REMARKS
GLASGOW MT     CLOUDY    11  -2  56 SE5       30.33F WCI   3
GREAT FALLS MT FAIR      34  25  69 SW6       30.12F
CHEYENNE WY    FAIR      42  32  67 N5        30.28F
SCOTTSBLUFF NE FAIR      46  24  42 W15G21    30.31F
OMAHA NE       FAIR      32  13  45 N24G32    30.25R WCI  19
DES MOINES IA  FAIR      34  15  46 NW21G33   30.14R WCI  22
DAVENPORT IA   FAIR      33  20  58 NW23G32   30.01R WCI  21
CHICAGO IL     CLOUDY    40  18  41 W17       29.84R
EAU CLAIRE WI  PTSUNNY   27  11  51 NW18G28   30.02R WCI  14
LA CROSSE WI   FAIR      32  13  45 NW20G29   30.01R WCI  20
$$

  *****  SOME NATIONAL WEATHER *****

CITY           SKY/WX    TMP DP  RH WIND       PRES   REMARKS
LA GUARDIA NY  PTSUNNY   59  29  31 SW14      30.04F
RALEIGH NC     CLOUDY    63  45  51 S8        30.12F
ATLANTA GA     PTSUNNY   64  52  64 CALM      30.04F
NEW ORLEANS LA PTSUNNY   72  59  63 N5        29.96F
OKLAHOMA CITY  PTSUNNY   60  31  33 N22       30.01R
ALBUQUERQUE NM PTSUNNY   58   8  13 N7        30.25F
SALT LAKE CITY PTSUNNY   56  38  50 CALM      30.35F
LOS ANGELES CA PTSUNNY   77  43  29 W7        30.07F
BOISE ID       CLOUDY    56  46  69 SE9       30.25F
SEATTLE WA     RAIN      45  44  97 CALM      29.93F FOG
$$

*** WEATHER ACROSS MANITOBA...SASKATCHEWAN AND ONTARIO ***
                ***ONTARIO***

CITY           SKY/WX    TMP DP  RH WIND       PRES   REMARKS
GERALDTON      LGT SNOW  16  10  79 NW14G25   29.71R DRFTSNOWWCI   1
THUNDER BAY    FLURRIES  21  10  63 NW20G30   29.90R WCI   6
SIOUX LOOKOUT  LGT SNOW  16   9  73 NW13G22   29.95R DRFTSNOWWCI   2
TORONTO        MOSUNNY   52  34  50 SW21G30   29.67R
BIG TROUT LK   LGT SNOW  16  12  86 NW18G31   29.74R WCI  -1
PICKLE LAKE    LGT SNOW  14   9  79 W15G28    29.81R DRFTSNOWWCI  -1
DRYDEN         FLURRIES  16  10  79 W13G25    29.99R WCI   2
KENORA         LGT SNOW  16  10  79 NW16G26   30.07R DRFTSNOWWCI   0
$$
                *** MANITOBA***

CITY           SKY/WX    TMP DP  RH WIND       PRES   REMARKS
BRANDON        MOSUNNY   14   9  79 NW16G23   30.30S WCI  -2
DAUPHIN        FLURRIES  16   9  73 W22G28    30.26F WCI  -2
ISLAND LAKE    FLURRIES  16  10  79 W15G26    29.97R WCI   1
PILOT MOUND      N/A     14   7  73 NW14G21     N/A  WCI  -1
THE PAS        MOSUNNY   12   3  67 NW13G18   30.24S WCI  -3
THOMPSON       FLURRIES   9   3  78 NW18G24   30.07R WCI -10
WINNIPEG       MOSUNNY   19   9  63 NW24G32   30.24R WCI   2
LYNN LAKE      SUNNY      9   3  78 NW15G23   30.11F WCI  -8
CHURCHILL      LGT SNOW  14  10  85 NW31G41   29.75R VSB 5/8 WCI  -7
$$
                ***SASKATCHEWAN***

CITY           SKY/WX    TMP DP  RH WIND       PRES   REMARKS
ESTEVAN        FLURRIES   7   0  72 W18G24    30.37R WCI -12
KINDERSLEY     MOSUNNY   -6 -11  77 SW5       30.26F WCI -17
LLOYDMINSTER   FLURRIES   1  -4  78 W5        30.23F WCI  -8
PRINCE ALBERT  FLURRIES   9   1  72 W7        30.34F WCI  -3
REGINA         PTSUNNY    3  -2  78 W9        30.35F WCI -11
YORKTON        SUNNY     12   5  73 W17G23    30.30S WCI  -5
N. BATTLEFORD  CLOUDY     3  -4  72 SW5       30.31F WCI  -6
LA RONGE       PTSUNNY    5   0  78 W7        30.30S WCI  -7
SASKATOON      PTSUNNY    5  -2  72 W6        30.34F WCI  -6
SWIFT CURRENT  CLOUDY     5  -2  72 S5        30.23F WCI  -4
$$
NOTE: THESE ARE AUTOMATED STATIONS WITH LIMITED QUALITY CONTROL
      "FAIR" INDICATES FEW OR NO CLOUDS BELOW 12,000 FEET WITH NO
      SIGNIFICANT WEATHER AND/OR OBSTRUCTIONS TO VISIBILITY.
      SKY/WX - SKY CONDITION AND SIGNIFICANT WEATHER.
      TMP - AIR TEMPERATURE.    DP   - DEWPOINT TEMPERATURE.
      RH  - RELATIVE HUMIDITY.  PRES - PRESSURE.
      HX  - HEAT INDEX.         WCI  - WIND CHILL INDEX.
$




USA.gov is the U.S. government's official web portal to all federal, state and local government web resources and services.